星链-36259(STARLINK-36259)

导读

STARLINK-36259是美国SpaceX公司星链(Starlink)星座项目的通信卫星,于2025年12月15日发射升空,属于项目组网阶段的新卫星。它运行在近地轨道,作为V2 Mini型号卫星,配备相控阵天线与激光通信技术,具备更高通信带宽与更强信号稳定性,旨在拓展星链全球覆盖范围,为全球尤其是基础设施薄弱区域提供高速低延迟互联网接入,同时支持行业专用通信服务。

基本信息
目录编号:
67106
目录名称:
STARLINK-36259
国际标识:
2025-299E
轨道中心:
EARTH
卫星名称:
星链-36259
卫星全名:
星链-36259(STARLINK-36259)
卫星状态:
在轨 (已飞行180 天)
发射日期:
2025-12-15 UTC
国别 :
美国 (US)
星等 :
--
轨道信息
数据来源 国际轨道数据
星历时间: 2026-06-12T14:18:37+0800
23小时前
查看轨道信息
半长轴: 6861.071km
偏心率: 0.0002334
轨道倾角: 43.001°
近地点辐角 268.712°
升交点赤经 354.581°
平近点角 91.346°
近地点: 481.332km
远地点: 484.536km
周期: 94.264分钟
每日圈数: 15.276186
详细信息
固有亮度:
5
最大亮度:
2.5
卫星平台:
Starlink V1.0
覆盖范围:
全球
运营商:
太空探索技术公司
运营商所在国:
美国
制造商(研发单位):
太空探索技术公司
制造商所在国:
美国
使用方式:
暂无
卫星简介
Starlink 计划是 SpaceX 推出的全球卫星互联网项目,通过发射低轨道卫星,为全球尤其是偏远地区提供高速、低延迟的互联网服务。自 2019 年起,Starlink 已部署数千颗卫星,旨在缩小全球数字鸿沟,推动互联网普及。该项目还为军事、航空等行业提供通信支持,带来广泛经济效益。
2D轨道图
3D轨道图
轨道高度分析图
轨道倾角分析图
轨道综合分析图
查看轨道综合分析图